Weather History for Abingdon, VA

Change the Weather History Date:

Friday, April 12, 2013

  Actual Average (KTRI) Record (KTRI)
Temperature  
Mean Temperature 58 °F 54 °F  
Max Temperature 64 °F 67 °F 84 °F (1945)
Min Temperature 50 °F 41 °F 25 °F (1989)
Degree Days  
Heating Degree Days 7 11  
Month to date heating degree days 150  
Since 1 July heating degree days 4100  
Cooling Degree Days 0 0  
Month to date cooling degree days 0  
Year to date cooling degree days 1  
Growing Degree Days 8 (Base 50)    
Moisture  
Dew Point 52 °F    
Average Humidity 80    
Maximum Humidity 100    
Minimum Humidity 50    
Precipitation  
Precipitation 0.76 in 0.11 in 1.05 in (1959)
Month to date precipitation 1.31  
Year to date precipitation 11.57  
Snow  
Snow 0.00 in 0.10 in - ()
Month to date snowfall 0.6  
Since 1 July snowfall 12.8  
Snow Depth -    
Sea Level Pressure  
Sea Level Pressure 29.77 in    
Wind  
Wind Speed 8 mph (West)    
Max Wind Speed 16 mph    
Max Gust Speed 24 mph    
Visibility 9 miles    
Events Rain , Thunderstorm    
T = Trace of Precipitation, MM = Missing Value Source: NWS Daily Summary

Daily Weather History Graph

Daily Weather History Graph

Search for Another Location

Airport:

Trip Planner

Search our weather history database for the weather conditions in past years. The results will help you decide how hot, cold, wet, or windy it might be!

Date:

Astronomy

Apr. 12, 2013 Rise Set
Actual Time 6:58 AM EDT 8:00 PM EDT
Civil Twilight 6:31 AM EDT 8:26 PM EDT
Nautical Twilight 6:00 AM EDT 8:58 PM EDT
Astronomical Twilight 5:27 AM EDT 9:31 PM EDT
Moon 8:10 AM EDT (4/12) 10:25 PM EDT (4/12)
Length of Visible Light 13h 55m
Length of Day
13h 02m
Waxing Crescent, 5% of the Moon is Illuminated
Apr 12
Waxing Crescent
Apr 18
First Quarter
Apr 25
Full
May 2
Last Quarter
May 9
New

Hourly Weather History & Observations

Time (EDT) Temp. Dew Point Humidity Pressure Visibility Wind Dir Wind Speed Gust Speed Precip Events Conditions
12:15 AM 64.8 °F 63.0 °F 94% 29.72 in 10.0 mi SSW 5.8 mph - 0.04 in Rain Rain
12:35 AM 63.9 °F 63.0 °F 97% 29.76 in 7.0 mi West 16.1 mph - 0.14 in Rain Heavy Rain
12:55 AM 62.2 °F 62.1 °F 99% 29.75 in 5.0 mi WNW 11.5 mph 21.9 mph 0.28 in Rain Rain
1:15 AM 61.7 °F 60.8 °F 97% 29.75 in 5.0 mi West 10.4 mph 19.6 mph 0.10 in Rain , Thunderstorm Rain
1:35 AM 61.0 °F 61.0 °F 100% 29.74 in 5.0 mi West 9.2 mph - 0.22 in Rain , Thunderstorm Rain
1:55 AM 60.8 °F 60.8 °F 100% 29.75 in 7.0 mi West 8.1 mph - 0.27 in Rain Rain
2:15 AM 60.6 °F 60.6 °F 100% 29.72 in 7.0 mi SW 3.5 mph - 0.04 in Rain Rain
2:35 AM 60.8 °F 60.8 °F 100% 29.70 in 10.0 mi South 4.6 mph - 0.05 in Rain Light Rain
2:55 AM 60.8 °F 60.8 °F 100% 29.69 in 10.0 mi South 6.9 mph - 0.08 in Rain Light Rain
3:15 AM 60.3 °F 60.3 °F 100% 29.65 in 10.0 mi SE 9.2 mph - 0.02 in Rain Light Rain
3:35 AM 60.3 °F 60.3 °F 100% 29.66 in 10.0 mi SSE 4.6 mph - 0.03 in Rain Light Rain
3:55 AM 59.9 °F 59.9 °F 100% 29.65 in 10.0 mi ESE 4.6 mph - 0.03 in Rain Rain
4:15 AM 59.9 °F 59.9 °F 100% 29.64 in 10.0 mi ESE 3.5 mph - N/A   Overcast
4:35 AM 59.9 °F 59.9 °F 100% 29.63 in 10.0 mi East 3.5 mph - 0.01 in   Overcast
4:55 AM 59.9 °F 59.9 °F 100% 29.63 in 10.0 mi ESE 3.5 mph - 0.01 in   Overcast
5:15 AM 59.9 °F 59.9 °F 100% 29.63 in 10.0 mi Calm Calm - N/A   Overcast
5:35 AM 59.9 °F 59.9 °F 100% 29.63 in 10.0 mi Calm Calm - N/A   Mostly Cloudy
5:55 AM 59.2 °F 59.2 °F 100% 29.62 in 10.0 mi Calm Calm - N/A   Mostly Cloudy
6:15 AM 59.2 °F 59.0 °F 99% 29.63 in 10.0 mi Calm Calm - N/A   Mostly Cloudy
6:35 AM 59.9 °F 59.4 °F 98% 29.66 in 10.0 mi NW 9.2 mph - N/A   Overcast
6:55 AM 61.0 °F 59.5 °F 95% 29.66 in 10.0 mi NW 5.8 mph - N/A   Overcast
7:15 AM 60.4 °F 60.3 °F 99% 29.68 in 4.0 mi WNW 9.2 mph - 0.03 in Rain Rain
7:35 AM 60.1 °F 60.1 °F 100% 29.69 in 2.5 mi West 9.2 mph - 0.06 in   Drizzle
7:55 AM 59.9 °F 59.9 °F 100% 29.70 in 3.0 mi West 6.9 mph - 0.07 in Rain Rain
8:15 AM 60.1 °F 60.1 °F 100% 29.72 in 5.0 mi West 6.9 mph - N/A Rain Light Rain
8:35 AM 59.9 °F 59.9 °F 100% 29.73 in 7.0 mi WNW 8.1 mph - 0.01 in   Light Drizzle
8:55 AM 59.2 °F 58.1 °F 96% 29.74 in 7.0 mi WNW 11.5 mph - 0.01 in   Drizzle
9:15 AM 58.5 °F 57.4 °F 96% 29.75 in 7.0 mi WNW 13.8 mph 21.9 mph 0.01 in   Overcast
9:35 AM 58.1 °F 56.7 °F 95% 29.76 in 10.0 mi WNW 10.4 mph 18.4 mph 0.01 in   Overcast
9:55 AM 58.1 °F 55.9 °F 93% 29.77 in 10.0 mi WNW 11.5 mph 24.2 mph 0.01 in   Overcast
10:15 AM 57.2 °F 55.6 °F 94% 29.78 in 10.0 mi West 11.5 mph - N/A   Overcast
10:35 AM 56.3 °F 55.9 °F 99% 29.78 in 3.0 mi West 9.2 mph - N/A   Overcast
10:55 AM 56.3 °F 55.9 °F 99% 29.79 in 10.0 mi West 9.2 mph - N/A   Overcast
11:15 AM 56.3 °F 55.8 °F 98% 29.80 in 5.0 mi WNW 8.1 mph - N/A   Overcast
11:35 AM 56.7 °F 55.8 °F 97% 29.80 in 10.0 mi West 11.5 mph 17.3 mph N/A   Overcast
11:55 AM 55.9 °F 55.2 °F 97% 29.80 in 7.0 mi West 11.5 mph - N/A   Overcast
12:15 PM 55.8 °F 54.9 °F 97% 29.80 in 10.0 mi West 11.5 mph - N/A   Overcast
12:55 PM 55.6 °F 54.3 °F 96% 29.80 in 10.0 mi West 10.4 mph 18.4 mph N/A   Overcast
1:15 PM 56.3 °F 53.6 °F 91% 29.80 in 10.0 mi WNW 11.5 mph 18.4 mph N/A   Overcast
1:35 PM 57.0 °F 53.4 °F 88% 29.80 in 10.0 mi WSW 11.5 mph 17.3 mph N/A   Overcast
1:55 PM 58.3 °F 54.0 °F 86% 29.81 in 10.0 mi West 12.7 mph 16.1 mph N/A   Overcast
2:15 PM 58.1 °F 52.7 °F 82% 29.81 in 10.0 mi West 8.1 mph - N/A   Mostly Cloudy
2:35 PM 60.8 °F 50.5 °F 69% 29.81 in 10.0 mi West 15.0 mph 23.0 mph N/A   Mostly Cloudy
2:55 PM 61.0 °F 49.1 °F 65% 29.80 in 10.0 mi West 15.0 mph 21.9 mph N/A   Mostly Cloudy
3:15 PM 62.2 °F 48.9 °F 62% 29.81 in 10.0 mi West 11.5 mph 20.7 mph N/A   Mostly Cloudy
3:35 PM 59.9 °F 48.0 °F 65% 29.80 in 10.0 mi West 12.7 mph - N/A   Mostly Cloudy
3:55 PM 61.9 °F 46.9 °F 58% 29.81 in 10.0 mi West 9.2 mph 21.9 mph N/A   Mostly Cloudy
4:15 PM 61.5 °F 45.5 °F 56% 29.80 in 10.0 mi WNW 16.1 mph 23.0 mph N/A   Scattered Clouds
4:35 PM 62.2 °F 45.3 °F 54% 29.81 in 10.0 mi West 11.5 mph 23.0 mph N/A   Scattered Clouds
4:55 PM 62.8 °F 45.5 °F 53% 29.81 in 10.0 mi WNW 15.0 mph 20.7 mph N/A   Scattered Clouds
5:15 PM 62.8 °F 45.7 °F 54% 29.81 in 10.0 mi West 13.8 mph 18.4 mph N/A   Scattered Clouds
5:35 PM 62.2 °F 44.8 °F 53% 29.81 in 10.0 mi West 12.7 mph 21.9 mph N/A   Scattered Clouds
5:55 PM 61.9 °F 43.3 °F 51% 29.82 in 10.0 mi West 12.7 mph 17.3 mph N/A   Clear
6:15 PM 61.7 °F 43.0 °F 50% 29.81 in 10.0 mi West 15.0 mph 20.7 mph N/A   Clear
6:35 PM 61.5 °F 42.6 °F 50% 29.82 in 10.0 mi West 13.8 mph - N/A   Clear
6:55 PM 61.0 °F 43.0 °F 52% 29.82 in 10.0 mi West 12.7 mph 16.1 mph N/A   Clear
7:15 PM 60.3 °F 42.3 °F 51% 29.82 in 10.0 mi West 10.4 mph 16.1 mph N/A   Clear
7:35 PM 59.5 °F 42.3 °F 53% 29.82 in 10.0 mi West 10.4 mph - N/A   Clear
7:55 PM 58.5 °F 42.1 °F 55% 29.83 in 10.0 mi West 9.2 mph - N/A   Clear
8:15 PM 57.0 °F 41.9 °F 57% 29.83 in 10.0 mi West 6.9 mph - N/A   Clear
8:35 PM 56.3 °F 41.2 °F 57% 29.84 in 10.0 mi West 4.6 mph - N/A   Clear
8:55 PM 55.4 °F 40.8 °F 58% 29.85 in 10.0 mi WNW 5.8 mph - N/A   Clear
9:15 PM 54.9 °F 39.9 °F 57% 29.86 in 10.0 mi WNW 5.8 mph - N/A   Clear
9:35 PM 54.5 °F 39.2 °F 56% 29.88 in 10.0 mi WNW 4.6 mph - N/A   Clear
9:55 PM 54.5 °F 38.5 °F 55% 29.89 in 10.0 mi WNW 4.6 mph - N/A   Clear
10:15 PM 53.6 °F 38.5 °F 57% 29.90 in 10.0 mi WNW 5.8 mph - N/A   Clear
10:35 PM 53.6 °F 38.3 °F 56% 29.90 in 10.0 mi NW 4.6 mph - N/A   Clear
10:55 PM 53.6 °F 37.8 °F 55% 29.91 in 10.0 mi Calm Calm - N/A   Clear
11:15 PM 52.5 °F 37.6 °F 57% 29.92 in 10.0 mi Calm Calm - N/A   Clear
11:35 PM 52.0 °F 37.0 °F 57% 29.93 in 10.0 mi NW 3.5 mph - N/A   Clear
11:55 PM 50.9 °F 37.4 °F 60% 29.93 in 10.0 mi NW 4.6 mph - N/A   Clear